Theta_e
288 288 287 288 289 290 291 290 291 290 290 291 292 294 296 297 297 298 298 299 299 299 299 299 300 300 301 301 301 300 300 300 301 301 302 302 302 302 302 303 303 303 304 304 304 304 304 303 303 302 302 302 302 301 301 300 301 302 301 301 302 302
288 287 287 287 288 289 290 290 290 290 291 291 292 293 294 295 296 297 297 298 298 299 299 299 300 300 300 300 300 300 300 300 301 301 301 302 302 303 303 303 303 303 303 304 304 303 303 303 302 302 302 302 302 301 301 300 301 301 301 301 302 302
287 287 287 287 287 288 289 290 290 290 290 291 292 293 293 294 296 296 297 297 297 297 298 298 298 299 299 299 299 299 300 300 300 301 302 302 302 303 302 303 303 303 304 304 303 303 303 302 301 302 302 302 302 301 302 301 302 302 302 302 301 302
287 287 287 287 286 286 287 289 290 291 290 291 292 292 293 293 294 295 296 296 297 297 297 297 298 298 298 298 298 298 299 299 300 301 301 302 302 302 303 303 303 303 303 303 303 303 303 303 302 301 302 302 302 302 302 302 303 304 305 305 305 304
286 286 286 285 285 285 286 287 288 290 291 290 290 291 292 293 294 294 295 295 296 296 296 296 297 297 297 297 298 298 299 299 300 301 301 302 302 302 303 303 303 303 303 303 303 302 302 302 302 302 303 303 304 304 304 304 304 304 304 304 304 304
286 286 285 285 285 285 285 285 287 288 290 290 290 291 291 292 292 293 293 294 294 295 295 296 296 296 297 297 297 298 298 299 300 300 301 302 301 301 301 302 302 302 302 302 302 302 302 301 301 302 304 304 304 304 304 304 304 303 303 303 304 306
285 285 285 285 284 284 284 284 285 286 288 289 290 290 290 291 291 292 293 293 294 294 295 295 295 296 296 297 297 297 297 298 299 299 301 301 300 300 300 300 301 301 301 301 301 301 301 301 301 302 303 304 304 303 302 303 303 303 303 304 306 303
284 284 284 284 284 284 284 284 284 285 286 287 289 289 289 290 290 291 292 292 293 293 294 295 295 296 296 296 297 297 297 298 298 299 299 300 300 299 299 300 300 300 301 301 301 301 301 301 301 302 302 302 302 302 302 302 302 303 305 306 307 306
283 284 284 284 284 283 284 283 283 283 284 285 287 288 288 288 289 290 291 292 292 293 293 294 295 296 296 296 297 297 297 297 298 298 299 299 300 299 299 299 300 299 301 301 301 301 301 301 301 302 302 302 302 302 303 303 304 305 306 306 306 306
283 283 283 283 283 283 283 284 283 283 283 284 285 286 287 288 287 289 290 290 290 291 292 293 294 295 296 296 296 297 296 297 296 297 298 297 299 298 299 299 299 299 300 301 300 301 301 301 301 301 302 302 303 304 304 305 305 306 306 305 306 306
282 282 282 283 283 282 283 283 283 283 283 283 284 285 286 286 286 288 288 289 289 290 292 292 291 293 294 294 295 294 295 295 295 295 296 296 297 298 299 299 299 298 298 298 299 299 300 301 301 301 302 302 303 305 305 306 306 306 305 305 305 305
283 282 282 282 282 282 282 282 282 282 282 282 283 284 286 286 287 287 287 288 289 289 289 289 290 291 291 292 293 293 293 293 293 294 294 295 296 296 296 297 298 298 298 297 297 298 299 300 301 297 298 299 304 305 306 306 306 305 305 303 303 303
284 283 282 282 281 282 282 282 282 282 282 282 283 284 285 285 286 286 286 287 288 288 288 288 288 288 290 291 291 291 292 293 292 293 293 294 294 294 294 295 296 296 297 298 298 297 299 300 300 296 298 299 300 304 306 306 305 305 304 303 302 301
283 283 282 282 281 281 281 281 282 282 282 282 282 283 284 285 285 286 286 286 288 287 287 287 287 288 289 289 291 291 290 290 290 291 292 292 291 292 292 294 296 296 296 297 297 298 298 298 295 297 298 299 300 300 305 307 305 304 304 303 302 302
282 282 282 282 282 282 281 282 281 281 281 281 282 283 284 285 285 286 286 286 286 286 287 286 287 288 288 289 290 290 289 289 290 290 290 291 291 290 292 294 295 295 295 296 297 296 296 297 296 297 298 298 299 299 302 307 306 304 304 302 302 302
282 282 282 282 283 282 282 282 281 281 281 281 282 282 283 284 285 285 286 286 285 286 285 286 286 287 287 287 287 287 288 289 290 289 290 290 290 292 292 292 294 294 294 295 296 296 296 296 296 297 297 297 298 298 301 306 306 305 303 302 301 301
280 280 280 281 283 283 283 283 282 281 281 281 281 281 282 282 283 283 283 285 286 285 285 285 285 286 286 285 286 287 287 289 288 288 288 289 290 292 292 293 293 294 294 294 294 295 295 297 295 296 297 297 297 298 299 305 304 303 302 301 301 301
280 279 279 282 283 283 283 283 283 281 281 281 280 280 281 281 281 281 281 282 283 285 286 285 285 285 286 285 285 286 287 287 288 288 287 288 288 289 290 290 293 294 295 295 295 295 295 294 295 295 296 297 297 297 299 303 302 301 300 300 300 300
280 280 280 281 282 282 283 283 282 281 281 280 280 280 280 280 279 280 280 280 281 282 284 285 285 285 285 284 285 286 287 287 286 286 286 288 289 290 290 291 293 294 295 294 294 295 295 293 294 294 294 296 297 297 299 301 301 300 299 299 298 299
280 280 280 281 280 281 283 283 282 281 280 280 280 279 279 279 278 279 279 280 280 281 282 284 285 285 285 285 286 287 287 286 286 286 287 289 289 289 290 291 292 293 295 294 294 295 294 293 292 293 294 295 295 296 299 299 300 298 298 297 296 297
279 280 281 281 280 281 282 282 281 280 279 279 279 279 278 277 277 278 279 279 280 280 281 282 284 285 285 286 287 287 287 286 287 286 286 287 288 289 290 290 291 291 293 293 294 290 293 292 291 292 293 293 294 296 299 299 299 297 295 295 293 292
278 279 279 279 280 281 282 281 280 280 280 279 278 277 276 276 277 278 279 280 280 281 281 282 283 284 285 286 286 285 286 285 285 285 286 285 287 288 289 289 290 291 291 290 291 291 293 292 292 291 293 293 293 295 297 298 298 297 294 293 293 292
278 278 279 279 280 281 281 280 279 280 280 279 276 275 276 276 277 278 278 279 280 281 281 281 282 283 284 285 285 285 285 285 285 285 286 286 285 286 287 289 289 290 289 290 290 291 291 292 292 291 292 292 293 294 295 296 298 297 295 293 292 293
277 277 278 279 280 280 279 278 278 279 279 278 276 275 275 276 276 277 277 278 280 280 281 281 281 282 283 284 284 284 284 284 285 286 286 286 285 286 286 288 288 289 288 288 289 290 290 289 289 291 291 292 292 293 294 296 296 296 295 293 292 292
276 277 277 279 279 277 277 277 277 278 278 276 276 275 274 275 275 276 276 278 279 280 280 281 281 281 282 282 282 284 284 283 284 284 285 285 285 285 286 286 287 287 287 287 287 288 289 289 289 288 290 290 291 292 293 294 294 294 294 295 292 292
276 276 277 278 277 275 275 275 275 276 276 276 276 274 274 273 274 275 276 277 278 279 280 281 281 281 280 280 280 282 283 283 283 284 285 285 285 285 286 286 286 286 286 286 286 287 287 288 289 287 288 289 290 292 292 293 294 293 294 293 294 292
275 275 276 277 275 274 274 274 274 274 274 275 275 273 272 272 273 274 275 276 277 278 279 281 281 280 279 279 278 280 282 280 282 284 283 284 284 285 286 285 286 286 286 286 286 286 287 287 288 288 287 288 288 291 292 292 293 293 293 292 291 291
275 275 275 276 274 272 273 273 273 272 273 274 273 272 271 271 271 272 273 274 275 277 279 280 281 281 280 278 278 280 281 282 283 284 283 284 284 285 285 285 285 285 285 285 285 285 286 286 287 287 288 287 287 288 290 291 291 289 290 290 292 289
274 273 274 274 273 271 271 272 272 272 272 272 272 270 270 270 270 271 272 272 274 277 279 280 281 281 281 279 278 278 280 281 282 283 283 284 284 284 285 284 284 284 285 284 284 284 284 285 286 286 287 288 288 289 288 289 289 288 288 289 290 288
272 272 273 273 272 271 270 270 270 271 271 271 270 268 268 268 269 269 270 271 274 275 278 279 280 281 281 281 279 279 278 279 281 282 283 283 284 284 284 284 284 285 285 285 284 283 282 284 285 286 286 287 288 289 289 289 289 290 290 290 290 289
270 271 273 272 271 269 268 268 269 270 269 269 268 267 266 266 267 268 269 271 273 274 276 278 279 280 281 281 281 279 280 281 281 282 283 282 284 286 286 285 285 286 286 286 286 284 283 283 284 285 286 287 288 288 289 289 290 291 291 290 289 288
268 269 271 271 270 268 268 266 267 268 268 267 266 265 265 265 266 267 268 270 271 272 274 276 278 279 281 281 281 281 280 280 281 283 283 283 283 284 286 287 286 286 286 285 286 286 286 285 285 287 287 287 288 288 289 289 290 291 290 289 290 289
267 268 270 270 269 267 266 266 266 266 266 265 264 264 264 264 264 266 267 268 269 271 273 275 276 278 280 281 282 281 280 280 280 284 285 285 282 283 285 286 286 287 286 286 285 284 287 285 286 287 287 287 288 288 289 289 290 290 290 290 290 291
266 267 270 269 267 265 264 264 264 264 263 262 262 263 263 263 263 264 265 267 269 271 272 273 275 277 279 280 281 281 281 280 280 280 280 282 282 284 285 286 286 287 287 287 287 283 282 285 287 287 287 287 287 288 288 289 290 290 290 290 291 290
266 268 269 267 265 263 262 262 263 263 261 261 261 262 262 262 262 263 264 266 268 270 271 272 274 276 277 278 279 280 281 281 280 280 280 279 281 283 285 286 286 287 287 287 287 286 286 285 286 287 287 287 287 288 288 289 290 290 290 291 291 291
267 268 267 264 263 262 261 260 261 261 260 260 260 261 260 261 262 263 265 266 268 268 269 271 272 273 274 276 278 279 280 281 282 281 279 280 277 277 280 283 285 286 286 286 287 286 286 286 286 286 286 286 287 288 288 289 289 290 291 290 290 290
266 265 265 263 262 261 260 259 260 260 259 259 260 260 259 260 262 263 265 267 268 268 268 269 270 271 273 274 276 278 280 281 282 282 281 280 279 279 279 279 278 281 283 284 285 286 286 286 286 286 286 286 287 287 288 289 288 287 288 289 290 290
262 262 262 261 260 259 258 258 259 258 258 258 259 259 259 260 261 262 263 265 266 266 267 268 269 270 271 273 275 278 280 281 282 282 283 282 281 280 279 278 277 278 281 282 283 284 286 286 286 286 286 286 287 287 288 286 286 287 287 288 289 289
Wind_Speed
16 16 17 16 15 15 13 12 10 8 7 8 9 12 12 12 11 12 12 12 11 11 13 15 15 14 14 13 12 10 12 12 11 11 11 7 8 9 9 10 10 10 10 10 10 10 10 9 9 9 9 9 8 7 7 6 8 8 8 7 8 7
15 16 16 18 18 17 15 13 9 7 8 7 7 6 6 7 10 10 11 12 11 11 11 12 13 13 13 12 13 12 13 13 12 11 10 12 9 10 10 10 11 11 12 11 11 11 10 10 9 9 9 8 8 8 7 7 8 8 8 7 7 6
16 16 15 15 15 13 13 12 10 8 6 5 5 6 7 7 8 8 10 8 10 10 11 12 11 12 11 11 13 13 13 11 12 11 11 8 11 11 11 12 12 12 12 12 11 12 11 11 10 9 9 9 8 7 8 8 9 9 7 7 7 6
15 16 16 15 15 16 18 16 12 10 7 6 5 4 4 5 6 7 7 7 9 10 11 10 9 10 9 10 10 10 10 10 10 10 8 11 10 10 12 12 11 11 11 11 11 11 11 11 11 10 9 9 9 8 7 9 9 9 8 7 7 7
12 12 14 14 14 15 16 15 15 13 10 7 5 4 5 4 5 5 5 7 7 9 8 8 9 9 10 11 10 11 11 10 10 10 12 11 10 11 11 12 11 11 11 11 11 11 11 11 11 10 10 10 11 11 9 9 9 9 9 8 8 7
10 12 15 16 16 16 16 14 14 14 12 9 6 5 5 4 4 4 4 5 6 6 6 8 8 9 11 12 11 11 10 10 10 10 11 11 10 11 10 10 11 11 12 12 11 11 11 11 10 10 10 11 11 10 10 9 8 8 8 7 7 7
13 13 13 13 14 14 14 14 14 14 14 12 9 7 5 4 3 3 4 4 5 5 7 7 7 9 10 11 9 10 10 10 10 9 11 11 11 11 10 9 9 11 12 12 13 12 12 12 12 12 11 10 9 10 9 9 8 8 7 7 7 7
10 11 12 12 13 13 13 14 13 14 14 13 10 8 6 5 4 2 3 4 5 5 6 7 7 8 9 9 8 10 10 10 10 10 9 11 11 9 10 11 10 11 12 11 12 12 12 11 11 12 11 10 9 8 7 7 8 7 7 7 8 8
13 11 12 12 12 12 12 12 13 13 14 15 14 10 7 5 3 3 2 3 4 4 5 6 7 8 8 9 9 8 8 9 10 10 11 10 11 11 11 10 11 10 12 11 11 12 12 11 11 10 10 10 9 9 8 8 8 8 8 8 8 7
11 12 13 13 14 14 13 11 11 11 11 13 13 12 10 6 3 3 3 2 3 4 5 5 5 6 7 7 7 8 9 8 8 9 8 8 11 11 12 12 12 10 10 11 11 10 10 11 10 10 9 9 9 9 8 8 9 9 8 8 8 7
11 11 13 12 14 16 16 14 15 15 14 12 12 12 11 8 4 2 2 2 3 5 5 4 4 4 5 5 5 6 6 7 7 7 8 9 9 9 10 10 11 11 10 9 10 10 9 11 11 10 10 10 9 9 9 9 9 9 8 7 7 7
10 10 11 12 14 15 16 15 15 14 14 14 13 12 11 8 6 3 2 3 4 3 2 3 3 4 4 4 5 5 6 7 7 8 8 8 8 8 8 9 9 10 11 10 9 9 9 9 8 11 15 13 10 10 9 9 9 9 8 7 7 7
10 10 11 12 12 13 13 13 13 13 14 14 14 13 12 9 7 5 3 3 1 1 1 2 3 3 4 5 5 5 6 7 6 7 8 8 8 9 8 9 10 9 10 11 11 10 9 8 8 15 15 15 14 11 9 9 9 8 8 8 8 7
11 11 11 12 11 11 12 14 14 13 14 13 14 14 11 9 6 5 5 4 1 2 3 3 3 4 4 4 6 6 6 6 7 7 8 8 8 7 7 9 10 10 9 9 10 10 10 8 11 15 15 16 16 13 9 8 8 8 8 8 8 8
9 10 11 10 11 11 11 11 12 13 13 13 12 11 10 10 8 6 6 5 3 2 1 3 4 4 4 5 6 6 6 6 6 6 7 8 7 7 9 9 9 9 8 9 10 9 8 7 12 15 16 16 16 16 13 8 9 8 8 8 8 8
9 9 9 10 10 9 9 7 9 10 9 9 9 10 11 11 11 9 9 7 5 4 2 2 3 4 4 3 3 4 5 6 8 7 7 7 7 8 8 7 9 8 9 10 10 9 8 7 11 15 15 16 16 16 13 7 9 9 8 9 8 8
6 9 13 12 11 10 10 10 10 10 10 9 10 10 11 10 10 11 11 10 9 6 4 3 2 3 3 3 3 4 5 7 6 6 6 7 8 9 9 9 8 8 8 7 7 7 8 8 12 14 15 15 16 15 12 6 7 7 7 7 8 8
9 7 7 10 11 9 9 10 10 10 10 7 8 9 10 10 10 10 10 10 10 9 7 4 4 2 1 3 4 4 5 6 7 8 6 6 5 5 5 5 6 8 9 8 8 8 8 6 12 13 14 16 15 15 10 7 7 7 7 7 7 7
9 9 7 5 6 9 10 10 9 9 9 10 10 9 10 11 12 12 11 9 9 9 9 7 4 3 3 3 4 5 6 6 6 5 5 6 6 7 6 7 6 6 7 8 7 8 7 7 11 12 13 14 15 12 7 7 6 7 7 7 7 6
9 9 8 9 6 6 9 10 9 9 8 10 10 11 11 12 13 12 11 11 10 10 9 8 6 4 3 4 6 7 6 5 4 4 6 8 8 7 6 6 5 5 6 8 9 9 9 7 9 13 12 13 15 12 8 7 7 7 7 6 6 6
9 10 9 9 10 11 9 10 10 7 8 9 10 10 12 13 12 13 13 13 11 10 9 8 6 5 4 5 6 6 6 6 7 5 6 6 6 7 6 6 6 5 5 6 7 9 9 7 8 12 11 12 14 11 7 8 7 7 6 6 6 4
8 9 11 12 12 12 12 11 9 8 7 8 8 11 12 12 12 12 11 11 11 10 10 8 6 5 4 6 5 4 5 3 3 5 5 4 5 6 6 6 6 7 6 5 6 7 7 7 7 9 13 12 13 13 8 7 8 8 8 6 7 6
6 7 9 9 11 11 12 12 10 9 9 9 10 12 12 12 12 12 11 12 12 12 11 9 7 7 5 4 5 4 3 3 4 5 6 6 4 4 5 6 6 6 6 5 6 6 7 7 8 8 11 11 12 13 11 7 7 7 7 7 6 6
7 9 9 10 12 12 12 11 11 10 10 9 10 12 12 12 12 11 11 12 11 11 11 11 10 7 5 4 3 3 4 3 4 5 6 5 6 6 6 6 5 5 5 4 5 5 6 6 9 7 9 10 10 12 12 8 7 7 8 7 7 6
7 8 9 9 11 12 12 12 11 11 11 10 11 11 11 11 11 12 12 11 11 12 12 12 12 10 6 4 3 4 4 3 4 4 4 6 7 8 8 7 6 5 5 4 3 3 5 5 6 9 8 10 10 11 12 10 7 10 8 8 8 8
6 7 8 7 9 11 11 12 11 11 11 11 11 11 11 11 11 11 11 10 10 11 11 12 12 11 7 5 3 3 3 3 4 4 6 6 6 7 8 6 6 6 6 6 5 5 5 5 5 7 10 9 11 10 12 11 10 11 8 6 6 6
6 6 7 7 9 9 10 11 11 12 12 12 12 13 13 13 12 10 11 11 11 10 10 11 10 10 9 6 3 3 3 3 3 5 4 5 5 6 7 7 7 8 8 7 8 7 6 6 6 6 8 11 10 10 9 10 10 10 10 6 4 5
5 6 7 7 9 9 9 10 10 12 12 12 12 13 13 13 12 11 11 10 10 10 10 11 11 10 10 9 4 3 3 4 5 5 5 5 6 6 7 7 7 7 7 7 6 6 6 6 6 6 6 7 8 8 9 10 10 10 10 8 7 9
6 7 7 6 7 8 9 9 9 10 11 11 12 13 13 11 11 11 9 10 10 9 9 10 9 10 10 9 7 4 3 3 4 4 5 6 6 6 6 6 7 7 7 7 7 6 5 6 7 7 6 7 7 7 7 7 7 8 8 6 4 7
7 8 8 6 6 7 8 9 9 10 12 11 11 12 12 11 10 11 11 11 10 9 9 8 11 11 9 9 8 7 5 4 4 5 7 7 7 7 7 7 8 9 9 9 7 6 5 6 7 7 8 9 9 8 8 8 7 7 6 6 5 5
6 8 8 6 6 7 7 7 8 10 11 11 11 13 12 11 12 11 10 10 9 8 8 8 8 9 9 9 9 6 5 5 5 6 6 5 6 8 9 8 7 8 8 8 9 9 8 6 8 11 8 8 9 10 11 10 10 8 7 8 10 7
6 7 7 6 6 6 8 7 8 9 9 10 11 12 12 13 12 11 9 9 9 9 9 8 8 8 9 8 9 10 8 6 8 7 6 6 7 10 9 6 7 7 7 7 7 7 9 11 8 8 13 12 12 12 11 8 8 9 8 12 16 9
6 6 6 6 7 8 8 9 9 9 10 11 11 12 12 12 11 9 9 9 8 10 10 9 8 8 8 8 9 8 8 9 5 7 10 10 7 8 11 10 8 7 10 8 6 6 7 6 10 14 16 16 16 16 15 12 12 13 13 15 11 9
7 8 7 7 8 8 8 9 8 7 9 11 12 11 11 11 10 9 9 9 9 10 10 9 9 9 9 9 9 8 8 7 8 8 5 7 9 9 10 11 12 10 9 12 10 7 5 7 10 14 16 16 17 17 17 16 16 17 18 17 13 7
7 7 6 8 10 9 8 8 10 9 9 10 11 11 12 12 11 11 10 9 10 10 10 9 9 9 9 9 9 9 8 7 6 7 9 5 3 5 8 10 11 12 11 11 11 13 10 10 10 13 14 16 16 17 17 16 15 17 19 18 11 9
8 8 7 8 9 10 9 9 9 9 11 11 11 11 11 11 10 11 9 10 11 10 9 8 9 9 9 8 8 8 9 8 6 6 6 7 7 4 3 3 6 8 10 10 11 11 11 11 12 13 14 15 16 16 16 15 12 15 19 16 11 10
8 8 9 9 9 9 9 9 9 10 11 12 12 11 10 10 11 9 11 15 12 9 9 8 8 8 9 9 8 8 8 8 8 6 5 5 6 5 6 5 4 4 7 7 7 10 11 11 12 14 15 16 16 16 16 14 10 12 10 10 9 9
7 7 8 8 9 9 9 8 9 11 12 12 12 12 11 10 10 10 9 9 11 9 9 9 9 9 9 9 8 8 8 8 9 8 5 4 4 5 6 5 4 3 4 7 7 9 11 12 13 13 14 15 17 17 18 12 11 11 11 11 10 9
Wind_Direction
345 342 336 331 327 318 306 296 290 278 262 246 234 232 224 218 211 211 212 208 207 207 206 204 205 205 203 199 195 188 197 197 193 191 193 175 169 170 166 174 180 183 185 184 183 177 178 173 171 167 166 168 169 173 175 169 173 183 188 190 188 193
343 343 340 337 334 330 322 312 304 289 276 269 259 254 241 225 218 210 211 208 206 205 206 209 208 204 200 196 190 193 199 196 191 189 182 186 174 179 174 176 181 185 186 187 181 178 174 174 171 168 166 167 174 171 173 175 176 185 188 185 191 182
342 342 343 338 334 334 332 329 320 306 299 285 272 255 245 230 222 210 214 205 210 206 205 205 203 206 203 200 198 198 196 191 189 189 187 165 184 176 176 184 186 187 188 184 182 181 178 173 171 171 165 170 172 174 176 171 180 185 187 176 189 191
340 341 343 343 344 345 345 340 335 330 324 308 295 279 260 241 231 213 209 205 207 205 206 202 200 201 197 199 200 201 195 190 188 180 165 183 183 177 185 185 185 185 184 183 184 183 178 175 170 168 165 170 172 174 176 175 180 186 184 181 193 191
339 337 338 341 343 341 343 345 345 336 325 323 313 299 274 254 241 224 208 206 206 208 204 195 195 191 194 195 196 199 192 189 180 173 179 182 178 186 185 186 182 184 182 183 184 182 179 176 170 169 169 173 175 177 180 181 181 184 185 190 198 197
341 343 346 347 349 348 346 344 343 342 337 327 319 306 292 291 269 237 213 208 207 200 193 199 194 188 190 195 195 195 191 184 181 177 182 182 177 183 189 181 181 178 181 182 182 183 177 172 169 168 174 175 175 177 180 181 186 188 190 194 196 196
350 348 344 342 343 344 346 346 344 344 340 335 328 313 306 294 280 246 221 206 201 195 192 194 189 193 195 194 190 191 184 183 180 181 185 179 182 184 173 179 176 177 180 183 183 180 177 174 169 168 171 173 174 177 178 182 187 192 196 196 199 196
341 344 344 342 343 343 343 344 345 343 342 337 331 318 318 310 318 268 230 208 194 193 191 189 188 195 195 193 190 188 185 183 182 184 187 181 180 172 179 175 177 180 183 184 181 178 176 171 169 169 169 170 170 172 176 178 185 191 194 197 197 193
345 343 341 341 339 342 341 343 345 346 342 339 338 329 312 304 302 287 237 212 198 192 197 188 193 191 190 192 189 184 186 187 187 182 185 181 176 174 176 181 179 184 181 182 178 177 171 167 165 165 165 166 168 174 178 185 189 193 194 195 192 186
337 344 341 341 342 339 341 343 347 346 343 337 336 332 325 320 319 282 264 212 203 202 203 198 197 192 194 190 186 187 188 182 181 185 179 173 179 180 180 179 181 179 180 177 175 173 166 162 164 164 163 165 171 175 185 188 189 190 190 186 182 184
333 341 341 340 341 344 342 343 347 349 348 347 341 334 329 320 312 270 262 242 216 216 207 197 196 194 187 188 185 182 179 177 177 175 175 181 182 180 181 178 175 171 175 171 171 167 165 164 169 167 166 168 175 181 187 189 188 185 180 177 179 185
335 339 339 341 344 343 343 342 345 346 345 343 341 337 328 330 313 290 234 223 242 253 234 199 183 180 173 171 179 180 174 174 175 174 175 182 180 176 175 174 175 172 170 166 166 164 165 170 170 170 169 170 174 182 185 186 186 181 174 172 180 187
336 339 343 342 342 341 339 337 335 336 344 347 345 340 330 324 313 309 291 264 290 265 174 166 182 162 170 179 171 172 174 177 172 174 175 176 176 175 171 168 170 175 172 168 166 167 171 171 170 168 171 175 180 181 183 184 181 177 175 176 181 189
339 342 340 337 337 338 341 338 335 337 344 344 346 340 331 329 328 328 324 320 303 175 184 187 169 175 184 168 178 175 177 170 172 176 176 171 171 172 163 171 175 172 172 169 166 168 172 176 167 166 173 180 185 185 182 179 176 177 179 178 181 186
333 335 336 334 335 337 335 333 331 336 334 339 338 336 351 354 347 343 338 333 334 301 203 171 178 189 186 193 181 175 164 167 171 173 171 177 171 156 170 177 169 175 169 165 167 172 173 171 168 170 178 186 188 187 182 180 177 179 182 181 182 183
331 336 335 326 325 330 324 327 324 321 320 325 336 349 357 9 11 4 350 343 341 334 302 226 194 193 200 191 169 158 162 167 180 180 177 166 162 168 168 169 174 169 171 174 172 170 166 167 173 179 183 187 189 189 185 180 178 180 181 182 181 185
334 336 336 337 335 329 332 335 340 331 333 346 353 358 359 7 11 14 6 359 349 341 333 306 269 230 190 174 169 168 174 181 178 174 173 166 169 170 176 175 174 176 171 168 163 158 166 179 177 183 185 186 188 189 188 179 177 175 178 178 180 184
332 334 321 320 323 330 336 335 335 337 335 337 1 359 2 -0 10 8 3 -0 354 345 328 313 297 282 198 176 172 180 186 183 178 175 171 165 174 174 160 169 169 166 170 171 166 163 169 174 182 184 186 188 187 186 186 184 175 174 171 174 178 182
328 325 316 310 319 328 338 335 338 338 338 351 358 359 1 2 5 2 355 347 346 341 332 315 292 267 214 188 187 199 197 188 183 175 159 160 171 169 172 174 176 172 167 160 159 161 170 175 190 186 188 188 186 180 186 177 171 170 171 175 175 179
328 325 323 322 330 339 336 339 341 342 349 353 355 359 360 5 0 349 345 342 338 334 329 318 295 271 237 201 204 205 209 203 191 176 171 169 168 178 180 168 168 171 170 166 173 176 172 177 185 185 186 185 185 179 176 174 169 171 171 170 173 172
327 319 325 331 342 347 345 343 343 347 359 355 355 358 2 1 351 347 341 335 331 328 326 321 302 269 246 231 226 215 202 195 192 177 174 176 169 172 162 164 166 163 167 175 175 165 168 173 186 185 182 179 181 178 170 171 170 167 175 165 176 178
327 339 346 348 343 337 346 350 345 349 1 2 355 1 1 351 342 331 327 328 330 328 327 329 319 283 255 246 246 231 222 188 154 162 171 167 168 165 165 162 165 171 176 165 161 170 172 173 189 188 184 182 179 177 167 167 167 176 173 175 169 166
343 341 342 341 340 345 350 349 345 346 356 1 6 5 352 339 332 328 329 330 330 332 330 331 331 309 278 254 248 240 208 176 179 166 171 168 153 143 152 165 168 172 175 170 172 169 179 180 187 200 187 179 179 181 171 173 178 169 163 173 168 178
347 348 351 351 356 355 351 347 345 343 351 2 6 355 341 337 331 328 331 330 333 333 333 331 330 321 293 274 238 210 210 203 183 184 177 161 154 157 162 162 166 172 168 170 174 178 182 179 183 198 204 187 183 185 183 169 184 166 161 163 175 178
355 358 352 354 2 356 349 346 347 347 349 357 356 347 338 333 332 330 326 328 336 338 334 331 329 328 321 291 246 213 213 198 179 180 174 164 160 159 160 163 163 163 168 171 183 188 185 183 186 187 204 204 186 190 191 181 168 168 165 169 179 186
357 353 353 2 7 359 352 351 347 346 349 349 350 342 337 338 334 331 334 334 333 335 336 331 328 326 323 302 272 234 210 191 191 177 178 179 173 167 161 162 161 165 175 183 193 197 197 190 187 195 197 210 205 192 190 188 180 172 179 172 175 171
353 353 353 7 15 3 354 353 347 345 347 348 350 342 339 335 332 333 335 338 337 335 331 329 329 329 328 317 282 242 219 195 185 182 194 176 182 176 171 169 168 178 184 186 196 200 198 195 193 193 199 203 214 207 190 189 193 189 172 170 168 159
357 359 357 9 17 5 353 355 351 347 341 342 347 342 336 332 331 335 336 334 332 330 330 332 331 332 334 325 299 262 231 197 193 194 186 189 189 186 179 171 174 181 183 194 197 198 199 194 195 199 194 198 203 209 207 193 192 191 186 174 162 168
1 357 356 6 26 10 353 351 347 343 342 342 347 340 334 330 330 328 329 331 326 327 333 336 338 334 332 336 320 291 268 219 201 200 193 194 188 187 185 175 177 183 190 198 199 190 179 194 200 198 193 188 194 200 197 193 195 189 178 176 155 152
1 350 351 -0 26 15 359 350 345 346 345 345 349 339 333 330 336 333 327 327 330 329 333 333 333 333 330 330 329 309 291 262 218 207 202 194 191 185 195 188 187 191 191 198 188 181 182 197 203 200 194 191 190 191 190 190 182 184 180 163 153 142
357 348 348 357 26 11 0 355 348 348 348 348 347 341 335 332 330 325 321 327 329 332 334 335 330 330 329 324 324 305 264 251 240 228 231 219 201 197 191 193 206 203 202 193 186 180 194 196 210 216 194 195 190 184 180 187 192 183 181 164 142 121
349 341 344 9 17 6 359 355 355 354 355 351 346 341 336 334 329 328 328 330 332 328 332 334 333 328 327 326 324 322 311 258 241 238 230 239 218 223 236 214 208 204 189 194 208 187 189 205 206 148 174 183 182 191 195 194 179 174 157 153 152 141
348 339 359 17 13 5 355 353 353 356 359 356 346 343 337 334 331 327 325 329 330 331 329 328 326 325 323 324 324 321 315 315 300 254 243 238 232 219 224 229 238 203 192 192 202 207 221 175 159 167 171 178 183 185 184 180 176 166 153 151 143 153
355 348 3 17 13 359 353 350 349 360 1 355 347 342 337 334 332 325 323 321 319 327 330 323 321 323 328 324 322 320 319 314 310 308 283 254 234 229 220 222 224 223 206 202 197 177 205 195 174 168 174 180 181 182 181 178 171 166 159 163 155 159
342 333 13 17 2 354 351 349 346 356 357 351 348 344 337 332 327 318 313 313 318 324 325 323 323 325 326 321 320 320 320 317 307 306 311 321 309 251 234 226 222 218 215 205 201 189 184 185 182 172 172 177 179 178 180 177 169 164 161 156 167 189
348 359 26 16 4 351 350 347 344 357 352 346 342 342 333 325 316 310 312 318 319 320 319 323 322 319 316 311 306 307 313 312 308 292 287 300 309 322 309 286 241 231 221 214 199 194 192 185 176 172 171 175 176 175 173 171 165 162 166 172 181 184
6 6 6 7 358 350 348 344 345 357 348 339 335 333 329 321 316 311 310 313 318 318 315 315 311 309 306 306 303 306 309 311 309 299 290 278 284 277 269 265 265 246 210 207 203 196 189 183 178 174 174 173 171 167 165 156 150 160 173 187 201 199
8 3 359 4 355 346 345 339 350 349 339 333 333 331 327 325 320 320 321 319 319 317 315 312 308 302 298 296 298 299 302 306 309 309 293 274 266 275 277 282 253 244 232 206 203 196 188 182 179 176 174 172 167 162 159 162 173 174 183 192 193 199